TimeCDT,TemperatureF,Dew PointF,Humidity,Sea Level PressureIn,VisibilityMPH,Wind Direction,Wind SpeedMPH,Gust SpeedMPH,PrecipitationIn,Events,Conditions,WindDirDegrees,DateUTC
12:15 AM,68.0,67.3,98,30.18,10.0,Calm,Calm,-,N/A,,Clear,0,2013-07-30 05:15:00
12:35 AM,68.4,67.5,97,30.18,10.0,Calm,Calm,-,N/A,,Clear,0,2013-07-30 05:35:00
12:55 AM,69.8,66.2,88,30.18,10.0,South,3.5,-,N/A,,Clear,190,2013-07-30 05:55:00
1:15 AM,68.9,64.6,86,30.18,10.0,SSW,3.5,-,N/A,,Clear,200,2013-07-30 06:15:00
1:35 AM,69.8,64.4,83,30.18,10.0,South,3.5,-,N/A,,Clear,190,2013-07-30 06:35:00
1:55 AM,69.3,64.4,84,30.18,10.0,South,3.5,-,N/A,,Clear,170,2013-07-30 06:55:00
2:15 AM,68.9,64.4,86,30.18,10.0,South,3.5,-,N/A,,Clear,180,2013-07-30 07:15:00
2:35 AM,69.3,64.0,83,30.18,10.0,South,3.5,-,N/A,,Scattered Clouds,180,2013-07-30 07:35:00
2:55 AM,69.3,64.2,84,30.18,10.0,Calm,Calm,-,N/A,,Scattered Clouds,0,2013-07-30 07:55:00
3:15 AM,69.1,63.5,82,30.17,10.0,Calm,Calm,-,N/A,,Clear,0,2013-07-30 08:15:00
3:35 AM,68.0,64.4,88,30.17,10.0,Calm,Calm,-,N/A,,Clear,0,2013-07-30 08:35:00
3:55 AM,67.1,66.2,97,30.18,10.0,Calm,Calm,-,N/A,,Scattered Clouds,0,2013-07-30 08:55:00
4:15 AM,67.3,66.6,98,30.18,10.0,Calm,Calm,-,N/A,,Scattered Clouds,0,2013-07-30 09:15:00
4:35 AM,67.5,66.7,98,30.18,10.0,Calm,Calm,-,N/A,,Scattered Clouds,0,2013-07-30 09:35:00
4:55 AM,67.1,65.5,95,30.17,10.0,Calm,Calm,-,N/A,,Scattered Clouds,0,2013-07-30 09:55:00
5:15 AM,67.1,65.5,95,30.18,10.0,Calm,Calm,-,N/A,,Scattered Clouds,0,2013-07-30 10:15:00
5:35 AM,67.3,65.3,93,30.18,10.0,Calm,Calm,-,N/A,,Clear,0,2013-07-30 10:35:00
5:55 AM,68.4,63.9,85,30.18,10.0,Calm,Calm,-,N/A,,Clear,0,2013-07-30 10:55:00
6:15 AM,68.4,62.8,82,30.18,10.0,Calm,Calm,-,N/A,,Clear,0,2013-07-30 11:15:00
6:35 AM,68.2,63.1,84,30.18,10.0,Calm,Calm,-,N/A,,Clear,0,2013-07-30 11:35:00
6:55 AM,68.2,63.3,84,30.18,10.0,Calm,Calm,-,N/A,,Clear,0,2013-07-30 11:55:00
7:15 AM,68.9,62.6,80,30.19,10.0,Calm,Calm,-,N/A,,Clear,0,2013-07-30 12:15:00
7:35 AM,69.1,63.3,82,30.18,10.0,SE,3.5,-,N/A,,Scattered Clouds,130,2013-07-30 12:35:00
7:55 AM,69.6,63.3,80,30.18,10.0,Calm,Calm,-,N/A,,Scattered Clouds,0,2013-07-30 12:55:00
8:15 AM,69.8,63.9,81,30.18,10.0,Calm,Calm,-,N/A,,Clear,0,2013-07-30 13:15:00
8:35 AM,70.3,63.5,79,30.18,10.0,Calm,Calm,-,N/A,,Clear,0,2013-07-30 13:35:00
8:55 AM,70.9,63.5,77,30.18,10.0,South,4.6,-,N/A,,Clear,170,2013-07-30 13:55:00
9:15 AM,71.4,63.7,76,30.18,10.0,Calm,Calm,-,N/A,,Scattered Clouds,0,2013-07-30 14:15:00
9:35 AM,71.6,64.2,77,30.18,10.0,Calm,Calm,-,N/A,,Scattered Clouds,0,2013-07-30 14:35:00
9:55 AM,72.1,64.0,76,30.18,10.0,South,3.5,-,N/A,,Scattered Clouds,170,2013-07-30 14:55:00
10:15 AM,72.7,64.6,76,30.18,10.0,SSW,4.6,-,N/A,,Scattered Clouds,210,2013-07-30 15:15:00
10:35 AM,72.7,64.6,76,30.18,10.0,SSW,4.6,-,N/A,,Scattered Clouds,200,2013-07-30 15:35:00
10:55 AM,73.4,65.8,77,30.18,10.0,SSW,4.6,-,N/A,,Mostly Cloudy,200,2013-07-30 15:55:00
11:15 AM,73.4,65.8,77,30.18,10.0,South,4.6,-,N/A,Rain,Light Rain,180,2013-07-30 16:15:00
11:55 AM,72.3,67.5,85,30.18,10.0,South,4.6,-,N/A,Rain,Light Rain,190,2013-07-30 16:55:00
12:15 PM,71.6,67.5,87,30.18,10.0,SSW,4.6,-,0.02,Rain,Rain,210,2013-07-30 17:15:00
12:35 PM,70.7,68.2,92,30.17,3.0,Calm,Calm,-,0.07,Rain,Rain,0,2013-07-30 17:35:00
1:15 PM,71.6,69.3,92,30.17,10.0,NNW,3.5,-,N/A,Rain,Light Rain,330,2013-07-30 18:15:00
1:35 PM,70.7,69.8,97,30.17,4.0,Calm,Calm,-,0.06,Rain,Rain,0,2013-07-30 18:35:00
1:55 PM,70.9,69.6,96,30.16,7.0,SSE,3.5,-,0.08,Rain,Light Rain,160,2013-07-30 18:55:00
2:15 PM,70.2,68.2,93,30.16,10.0,South,3.5,-,0.01,Rain,Light Rain,180,2013-07-30 19:15:00
2:35 PM,70.2,68.4,94,30.16,5.0,South,3.5,-,0.04,Rain,Rain,170,2013-07-30 19:35:00
2:55 PM,70.2,69.1,96,30.16,7.0,SSE,3.5,-,0.07,Rain,Light Rain,150,2013-07-30 19:55:00
3:15 PM,70.9,70.2,98,30.15,7.0,SE,4.6,-,0.01,Rain,Light Rain,130,2013-07-30 20:15:00
3:35 PM,72.0,71.1,97,30.14,7.0,SE,3.5,-,0.01,Rain,Light Rain,130,2013-07-30 20:35:00
3:55 PM,72.5,71.6,97,30.13,7.0,ESE,6.9,-,0.03,Rain,Rain,120,2013-07-30 20:55:00
4:15 PM,72.0,71.4,98,30.13,5.0,SE,5.8,-,0.02,Rain,Light Rain,130,2013-07-30 21:15:00
4:35 PM,71.8,71.1,98,30.11,7.0,SE,11.5,-,0.05,Rain,Light Rain,130,2013-07-30 21:35:00
4:55 PM,71.1,70.7,99,30.11,7.0,SE,8.1,-,0.06,Rain,Light Rain,130,2013-07-30 21:55:00
5:15 PM,71.2,70.7,98,30.10,7.0,SSE,8.1,-,0.01,Rain,Light Rain,150,2013-07-30 22:15:00
5:35 PM,71.6,71.1,98,30.10,7.0,SSE,8.1,-,0.02,Rain,Light Rain,160,2013-07-30 22:35:00
5:55 PM,71.8,71.1,98,30.10,7.0,SSE,4.6,-,0.03,Rain,Light Rain,150,2013-07-30 22:55:00
6:15 PM,71.6,70.9,98,30.09,7.0,South,8.1,-,0.01,Rain,Light Rain,190,2013-07-30 23:15:00
6:35 PM,71.6,70.9,98,30.09,7.0,SSE,6.9,-,0.01,Rain,Light Rain,160,2013-07-30 23:35:00
6:55 PM,71.6,70.9,98,30.09,7.0,South,6.9,-,0.02,Rain,Rain,170,2013-07-30 23:55:00
7:15 PM,71.6,70.9,98,30.09,10.0,South,6.9,-,N/A,Rain,Light Rain,180,2013-07-31 00:15:00
7:35 PM,71.6,70.9,98,30.10,5.0,South,4.6,-,0.03,Rain,Rain,170,2013-07-31 00:35:00
7:55 PM,71.2,70.7,98,30.09,7.0,SSE,4.6,-,0.03,,Overcast,160,2013-07-31 00:55:00
8:15 PM,71.2,70.7,98,30.09,10.0,SSE,4.6,-,N/A,,Overcast,160,2013-07-31 01:15:00
8:35 PM,71.2,70.7,98,30.09,10.0,SSE,3.5,-,N/A,,Overcast,160,2013-07-31 01:35:00
8:55 PM,71.2,70.9,99,30.08,10.0,SSE,4.6,-,N/A,,Overcast,150,2013-07-31 01:55:00
9:15 PM,71.6,70.9,98,30.08,10.0,SE,4.6,-,N/A,,Overcast,130,2013-07-31 02:15:00
9:35 PM,71.4,71.1,99,30.08,10.0,SE,4.6,-,N/A,,Overcast,130,2013-07-31 02:35:00
9:55 PM,71.6,70.9,98,30.08,10.0,SSE,3.5,-,N/A,,Overcast,150,2013-07-31 02:55:00
10:15 PM,71.6,70.9,98,30.08,10.0,South,4.6,-,N/A,,Overcast,170,2013-07-31 03:15:00
10:35 PM,71.6,70.7,97,30.09,10.0,SSE,4.6,-,N/A,,Overcast,160,2013-07-31 03:35:00
10:55 PM,71.8,70.7,96,30.09,10.0,Calm,Calm,-,N/A,,Overcast,0,2013-07-31 03:55:00
11:15 PM,71.8,70.9,97,30.09,10.0,South,4.6,-,N/A,,Overcast,190,2013-07-31 04:15:00
11:35 PM,71.8,71.1,98,30.09,10.0,South,5.8,-,N/A,,Overcast,190,2013-07-31 04:35:00
11:55 PM,71.6,70.9,98,30.08,10.0,SSE,5.8,-,N/A,,Overcast,160,2013-07-31 04:55:00